Time,TemperatureF,DewpointF,PressureIn,WindDirection,WindDirectionDegrees,WindSpeedMPH,WindSpeedGustMPH,Humidity,HourlyPrecipIn,Conditions,Clouds,dailyrainin,SoftwareType,DateUTC
2013-01-15 00:00:00,27.0,21.5,30.27,North,10,4.5,8.7,77,-99.99,,,-99.99,WSDL version 423,2013-01-15 06:00:00,
2013-01-15 00:02:00,26.9,21.4,30.27,NE,42,3.8,8.7,77,-99.99,,,-99.99,WSDL version 423,2013-01-15 06:02:00,
2013-01-15 00:03:00,26.9,21.4,30.27,NNE,19,3.9,8.7,77,-99.99,,,-99.99,WSDL version 423,2013-01-15 06:03:00,
2013-01-15 00:07:00,26.9,21.4,30.27,NNE,19,4.5,6.0,77,-99.99,,,-99.99,WSDL version 423,2013-01-15 06:07:00,
2013-01-15 00:09:00,26.9,21.4,30.27,North,6,4.3,8.7,77,-99.99,,,-99.99,WSDL version 423,2013-01-15 06:09:00,
2013-01-15 00:10:00,26.9,21.4,30.27,NNE,15,4.9,8.7,77,-99.99,,,-99.99,WSDL version 423,2013-01-15 06:10:00,
2013-01-15 00:13:00,26.9,21.4,30.27,NNE,23,3.9,8.7,77,-99.99,,,-99.99,WSDL version 423,2013-01-15 06:13:00,
2013-01-15 00:14:00,26.9,21.4,30.27,NE,39,3.5,8.7,77,-99.99,,,-99.99,WSDL version 423,2013-01-15 06:14:00,
2013-01-15 00:17:00,26.9,21.6,30.27,North,11,4.3,8.7,78,-99.99,,,-99.99,WSDL version 423,2013-01-15 06:17:00,
2013-01-15 00:18:00,26.9,21.6,30.27,NNE,13,4.9,9.8,78,-99.99,,,-99.99,WSDL version 423,2013-01-15 06:18:00,
2013-01-15 00:22:00,26.9,21.7,30.27,NNE,23,4.5,9.8,78,-99.99,,,-99.99,WSDL version 423,2013-01-15 06:22:00,
2013-01-15 00:23:00,26.9,21.7,30.27,NNE,13,4.2,9.8,78,-99.99,,,-99.99,WSDL version 423,2013-01-15 06:23:00,
2013-01-15 00:24:00,26.9,21.7,30.27,North,6,3.6,9.8,78,-99.99,,,-99.99,WSDL version 423,2013-01-15 06:24:00,
2013-01-15 00:28:00,26.9,21.7,30.27,North,10,4.0,7.4,78,-99.99,,,-99.99,WSDL version 423,2013-01-15 06:28:00,
2013-01-15 00:29:00,26.9,21.7,30.27,NNE,14,4.7,7.4,78,-99.99,,,-99.99,WSDL version 423,2013-01-15 06:29:00,
2013-01-15 00:30:00,26.9,21.7,30.27,NNE,15,4.7,7.2,78,-99.99,,,-99.99,WSDL version 423,2013-01-15 06:30:00,
2013-01-15 00:32:00,26.9,21.7,30.27,NNE,13,4.5,7.2,78,-99.99,,,-99.99,WSDL version 423,2013-01-15 06:32:00,
2013-01-15 00:34:00,26.9,21.7,30.27,NNE,19,5.4,7.8,78,-99.99,,,-99.99,WSDL version 423,2013-01-15 06:34:00,
2013-01-15 00:38:00,26.9,21.7,30.27,NNE,29,4.3,7.8,78,-99.99,,,-99.99,WSDL version 423,2013-01-15 06:38:00,
2013-01-15 00:41:00,26.9,21.8,30.27,North,5,3.8,7.8,79,-99.99,,,-99.99,WSDL version 423,2013-01-15 06:41:00,
2013-01-15 00:42:00,26.9,21.9,30.27,NNE,23,4.9,7.8,79,-99.99,,,-99.99,WSDL version 423,2013-01-15 06:42:00,
2013-01-15 00:43:00,26.9,21.9,30.27,NNE,30,5.3,7.8,79,-99.99,,,-99.99,WSDL version 423,2013-01-15 06:43:00,
2013-01-15 00:48:00,26.9,21.9,30.27,North,11,4.6,7.2,79,-99.99,,,-99.99,WSDL version 423,2013-01-15 06:48:00,
2013-01-15 00:50:00,26.9,21.9,30.27,NNE,13,3.3,7.2,79,-99.99,,,-99.99,WSDL version 423,2013-01-15 06:50:00,
2013-01-15 00:51:00,26.9,21.9,30.27,North,8,3.2,7.2,79,-99.99,,,-99.99,WSDL version 423,2013-01-15 06:51:00,
2013-01-15 00:53:00,26.9,21.8,30.27,NNE,23,4.7,7.6,79,-99.99,,,-99.99,WSDL version 423,2013-01-15 06:53:00,
2013-01-15 00:55:00,26.8,21.8,30.27,North,6,4.5,7.6,79,-99.99,,,-99.99,WSDL version 423,2013-01-15 06:55:00,
2013-01-15 00:58:00,26.8,21.8,30.27,North,10,4.3,7.6,79,-99.99,,,-99.99,WSDL version 423,2013-01-15 06:58:00,
2013-01-15 00:59:00,26.8,21.8,30.27,NNE,25,5.0,7.6,79,-99.99,,,-99.99,WSDL version 423,2013-01-15 06:59:00,
2013-01-15 01:00:00,26.8,21.8,30.27,NNE,25,5.0,8.5,79,-99.99,,,-99.99,WSDL version 423,2013-01-15 07:00:00,
2013-01-15 01:03:00,26.8,21.7,30.27,North,6,4.9,8.5,79,-99.99,,,-99.99,WSDL version 423,2013-01-15 07:03:00,
2013-01-15 01:04:00,26.8,21.7,30.27,NNE,18,4.2,8.5,79,-99.99,,,-99.99,WSDL version 423,2013-01-15 07:04:00,
2013-01-15 01:06:00,26.8,21.7,30.27,North,8,5.4,8.5,79,-99.99,,,-99.99,WSDL version 423,2013-01-15 07:06:00,
2013-01-15 01:07:00,26.8,21.7,30.27,NNE,14,5.6,8.5,79,-99.99,,,-99.99,WSDL version 423,2013-01-15 07:07:00,
2013-01-15 01:09:00,26.8,21.7,30.27,NE,42,4.5,8.5,79,-99.99,,,-99.99,WSDL version 423,2013-01-15 07:09:00,
2013-01-15 01:11:00,26.8,21.7,30.27,NE,35,3.4,8.5,79,-99.99,,,-99.99,WSDL version 423,2013-01-15 07:11:00,
2013-01-15 01:12:00,26.8,21.7,30.27,NNE,25,3.4,8.5,79,-99.99,,,-99.99,WSDL version 423,2013-01-15 07:12:00,
2013-01-15 01:16:00,26.8,21.7,30.27,NNE,20,3.6,7.2,79,-99.99,,,-99.99,WSDL version 423,2013-01-15 07:16:00,
2013-01-15 01:17:00,26.8,21.7,30.27,NNE,17,3.5,5.6,79,-99.99,,,-99.99,WSDL version 423,2013-01-15 07:17:00,
2013-01-15 01:18:00,26.8,21.7,30.27,North,10,3.9,5.8,79,-99.99,,,-99.99,WSDL version 423,2013-01-15 07:18:00,
2013-01-15 01:20:00,26.8,21.7,30.27,North,10,4.1,5.8,79,-99.99,,,-99.99,WSDL version 423,2013-01-15 07:20:00,
2013-01-15 01:22:00,26.8,21.7,30.27,North,3,3.4,5.8,79,-99.99,,,-99.99,WSDL version 423,2013-01-15 07:22:00,
2013-01-15 01:23:00,26.8,21.7,30.27,North,6,3.4,5.8,79,-99.99,,,-99.99,WSDL version 423,2013-01-15 07:23:00,
2013-01-15 01:24:00,26.8,21.7,30.27,North,8,3.8,6.3,79,-99.99,,,-99.99,WSDL version 423,2013-01-15 07:24:00,
2013-01-15 01:27:00,26.7,21.6,30.27,NNE,13,4.7,6.3,79,-99.99,,,-99.99,WSDL version 423,2013-01-15 07:27:00,
2013-01-15 01:30:00,26.7,21.8,30.27,North,11,4.1,6.3,80,-99.99,,,-99.99,WSDL version 423,2013-01-15 07:30:00,
2013-01-15 01:31:00,26.7,21.8,30.27,NNE,19,4.4,6.3,80,-99.99,,,-99.99,WSDL version 423,2013-01-15 07:31:00,
2013-01-15 01:32:00,26.8,21.9,30.27,NNE,14,4.5,6.3,80,-99.99,,,-99.99,WSDL version 423,2013-01-15 07:32:00,
2013-01-15 01:36:00,26.8,22.0,30.27,North,3,4.6,6.3,80,-99.99,,,-99.99,WSDL version 423,2013-01-15 07:36:00,
2013-01-15 01:37:00,26.8,22.0,30.27,North,6,4.3,6.3,80,-99.99,,,-99.99,WSDL version 423,2013-01-15 07:37:00,
2013-01-15 01:39:00,26.8,22.0,30.27,NNE,25,5.4,9.2,80,-99.99,,,-99.99,WSDL version 423,2013-01-15 07:39:00,
2013-01-15 01:42:00,26.8,22.0,30.27,North,3,4.6,9.2,80,-99.99,,,-99.99,WSDL version 423,2013-01-15 07:42:00,
2013-01-15 01:45:00,26.8,22.0,30.27,NNE,14,4.4,9.2,80,-99.99,,,-99.99,WSDL version 423,2013-01-15 07:45:00,
2013-01-15 01:46:00,26.8,22.0,30.27,North,8,4.0,9.2,80,-99.99,,,-99.99,WSDL version 423,2013-01-15 07:46:00,
2013-01-15 01:47:00,26.8,22.0,30.27,NNE,14,3.9,9.2,80,-99.99,,,-99.99,WSDL version 423,2013-01-15 07:47:00,
2013-01-15 01:49:00,26.8,22.0,30.27,NNE,20,4.3,6.3,80,-99.99,,,-99.99,WSDL version 423,2013-01-15 07:49:00,
2013-01-15 01:52:00,26.8,22.0,30.27,NE,48,4.6,7.4,80,-99.99,,,-99.99,WSDL version 423,2013-01-15 07:52:00,
2013-01-15 01:53:00,26.8,22.0,30.27,NNE,28,4.4,7.4,80,-99.99,,,-99.99,WSDL version 423,2013-01-15 07:53:00,
2013-01-15 01:56:00,26.8,22.0,30.27,North,8,3.7,7.4,80,-99.99,,,-99.99,WSDL version 423,2013-01-15 07:56:00,
2013-01-15 01:58:00,26.7,21.9,30.27,North,10,5.0,7.4,80,-99.99,,,-99.99,WSDL version 423,2013-01-15 07:58:00,
2013-01-15 01:59:00,26.7,21.9,30.27,North,3,4.6,7.4,80,-99.99,,,-99.99,WSDL version 423,2013-01-15 07:59:00,
2013-01-15 02:01:00,26.7,21.9,30.27,North,4,5.4,7.4,80,-99.99,,,-99.99,WSDL version 423,2013-01-15 08:01:00,
2013-01-15 02:03:00,26.7,21.9,30.27,North,360,5.1,7.4,80,-99.99,,,-99.99,WSDL version 423,2013-01-15 08:03:00,
2013-01-15 02:04:00,26.7,21.9,30.27,North,5,4.8,7.4,80,-99.99,,,-99.99,WSDL version 423,2013-01-15 08:04:00,
2013-01-15 02:09:00,26.7,21.9,30.27,NNE,15,4.2,7.4,80,-99.99,,,-99.99,WSDL version 423,2013-01-15 08:09:00,
2013-01-15 02:10:00,26.7,21.9,30.27,NNE,13,4.1,7.2,80,-99.99,,,-99.99,WSDL version 423,2013-01-15 08:10:00,
2013-01-15 02:12:00,26.6,21.9,30.27,North,6,4.6,7.2,81,-99.99,,,-99.99,WSDL version 423,2013-01-15 08:12:00,
2013-01-15 02:13:00,26.6,21.9,30.27,North,11,4.5,7.2,81,-99.99,,,-99.99,WSDL version 423,2013-01-15 08:13:00,
2013-01-15 02:16:00,26.6,22.1,30.27,NNE,19,4.0,5.8,81,-99.99,,,-99.99,WSDL version 423,2013-01-15 08:16:00,
2013-01-15 02:18:00,26.6,22.1,30.27,North,11,3.8,5.8,81,-99.99,,,-99.99,WSDL version 423,2013-01-15 08:18:00,
2013-01-15 02:19:00,26.6,22.1,30.27,North,4,3.8,5.8,81,-99.99,,,-99.99,WSDL version 423,2013-01-15 08:19:00,
2013-01-15 02:21:00,26.6,22.1,30.27,NNE,13,4.3,5.8,81,-99.99,,,-99.99,WSDL version 423,2013-01-15 08:21:00,
2013-01-15 02:23:00,26.6,22.1,30.27,NNE,25,4.4,6.0,81,-99.99,,,-99.99,WSDL version 423,2013-01-15 08:23:00,
2013-01-15 02:24:00,26.6,22.1,30.27,NNE,29,4.3,6.0,81,-99.99,,,-99.99,WSDL version 423,2013-01-15 08:24:00,
2013-01-15 02:28:00,26.6,22.1,30.27,NNE,15,4.1,6.5,81,-99.99,,,-99.99,WSDL version 423,2013-01-15 08:28:00,
2013-01-15 02:30:00,26.6,22.1,30.27,NNE,14,4.0,6.5,81,-99.99,,,-99.99,WSDL version 423,2013-01-15 08:30:00,
2013-01-15 02:32:00,26.6,22.1,30.27,NNE,18,4.1,7.6,81,-99.99,,,-99.99,WSDL version 423,2013-01-15 08:32:00,
2013-01-15 02:33:00,26.6,22.1,30.27,NNE,19,4.1,7.6,81,-99.99,,,-99.99,WSDL version 423,2013-01-15 08:33:00,
2013-01-15 02:35:00,26.6,22.1,30.27,North,11,4.5,8.5,81,-99.99,,,-99.99,WSDL version 423,2013-01-15 08:35:00,
2013-01-15 02:38:00,26.5,21.9,30.27,North,10,3.6,8.5,81,-99.99,,,-99.99,WSDL version 423,2013-01-15 08:38:00,
2013-01-15 02:39:00,26.4,21.9,30.27,North,11,4.5,8.5,81,-99.99,,,-99.99,WSDL version 423,2013-01-15 08:39:00,
2013-01-15 02:40:00,26.4,21.9,30.27,NNE,16,4.9,8.5,81,-99.99,,,-99.99,WSDL version 423,2013-01-15 08:40:00,
2013-01-15 02:41:00,26.4,21.9,30.27,NNE,20,4.9,8.5,81,-99.99,,,-99.99,WSDL version 423,2013-01-15 08:41:00,
2013-01-15 02:44:00,26.4,21.9,30.24,North,11,5.6,6.3,81,-99.99,,,-99.99,WSDL version 423,2013-01-15 08:44:00,
2013-01-15 02:46:00,26.4,21.9,30.24,North,10,4.3,6.3,81,-99.99,,,-99.99,WSDL version 423,2013-01-15 08:46:00,
2013-01-15 02:47:00,26.4,21.9,30.24,North,3,3.6,6.3,81,-99.99,,,-99.99,WSDL version 423,2013-01-15 08:47:00,
2013-01-15 02:49:00,26.4,21.8,30.24,NNE,23,4.0,6.5,80,-99.99,,,-99.99,WSDL version 423,2013-01-15 08:49:00,
2013-01-15 02:51:00,26.4,21.7,30.24,North,11,4.1,6.5,80,-99.99,,,-99.99,WSDL version 423,2013-01-15 08:51:00,
2013-01-15 02:54:00,26.4,21.7,30.24,North,357,4.1,6.5,80,-99.99,,,-99.99,WSDL version 423,2013-01-15 08:54:00,
2013-01-15 02:55:00,26.4,21.7,30.24,North,3,4.1,6.5,80,-99.99,,,-99.99,WSDL version 423,2013-01-15 08:55:00,
2013-01-15 02:56:00,26.4,21.7,30.24,North,360,4.1,6.5,80,-99.99,,,-99.99,WSDL version 423,2013-01-15 08:56:00,
2013-01-15 03:00:00,26.4,21.7,30.24,North,360,4.5,6.3,80,-99.99,,,-99.99,WSDL version 423,2013-01-15 09:00:00,
2013-01-15 03:01:00,26.4,21.6,30.24,North,8,4.0,6.3,80,-99.99,,,-99.99,WSDL version 423,2013-01-15 09:01:00,
2013-01-15 03:06:00,26.4,21.7,30.24,North,360,4.3,6.3,80,-99.99,,,-99.99,WSDL version 423,2013-01-15 09:06:00,
2013-01-15 03:08:00,26.3,21.6,30.24,NNE,30,3.4,5.4,80,-99.99,,,-99.99,WSDL version 423,2013-01-15 09:08:00,
2013-01-15 03:11:00,26.2,21.5,30.24,NE,34,3.9,6.0,80,-99.99,,,-99.99,WSDL version 423,2013-01-15 09:11:00,
2013-01-15 03:13:00,26.2,21.5,30.24,North,8,4.3,6.0,80,-99.99,,,-99.99,WSDL version 423,2013-01-15 09:13:00,
2013-01-15 03:16:00,26.2,21.5,30.24,NNE,32,4.0,6.0,80,-99.99,,,-99.99,WSDL version 423,2013-01-15 09:16:00,
2013-01-15 03:18:00,26.2,21.5,30.24,North,11,4.1,6.9,80,-99.99,,,-99.99,WSDL version 423,2013-01-15 09:18:00,
2013-01-15 03:21:00,26.2,21.5,30.24,NNE,31,4.9,7.8,80,-99.99,,,-99.99,WSDL version 423,2013-01-15 09:21:00,
2013-01-15 03:22:00,26.2,21.5,30.24,NE,48,4.5,7.8,80,-99.99,,,-99.99,WSDL version 423,2013-01-15 09:22:00,
2013-01-15 03:26:00,26.2,21.6,30.24,North,9,3.8,7.8,81,-99.99,,,-99.99,WSDL version 423,2013-01-15 09:26:00,
2013-01-15 03:27:00,26.2,21.6,30.24,NNE,23,3.8,7.8,81,-99.99,,,-99.99,WSDL version 423,2013-01-15 09:27:00,
2013-01-15 03:31:00,26.2,21.8,30.24,NNE,20,4.6,7.4,81,-99.99,,,-99.99,WSDL version 423,2013-01-15 09:31:00,
2013-01-15 03:32:00,26.2,21.8,30.24,NNE,14,4.3,7.6,81,-99.99,,,-99.99,WSDL version 423,2013-01-15 09:32:00,
2013-01-15 03:37:00,26.2,21.8,30.24,NNE,15,3.8,7.6,81,-99.99,,,-99.99,WSDL version 423,2013-01-15 09:37:00,
2013-01-15 03:39:00,26.2,21.8,30.24,North,352,3.8,7.6,81,-99.99,,,-99.99,WSDL version 423,2013-01-15 09:39:00,
2013-01-15 03:40:00,26.2,21.8,30.24,North,350,3.3,7.6,81,-99.99,,,-99.99,WSDL version 423,2013-01-15 09:40:00,
2013-01-15 03:42:00,26.2,21.8,30.24,NNE,19,3.7,5.6,81,-99.99,,,-99.99,WSDL version 423,2013-01-15 09:42:00,
2013-01-15 03:47:00,26.2,21.8,30.24,NNE,13,3.3,6.9,81,-99.99,,,-99.99,WSDL version 423,2013-01-15 09:47:00,
2013-01-15 03:49:00,26.3,21.8,30.24,North,11,3.0,6.9,81,-99.99,,,-99.99,WSDL version 423,2013-01-15 09:49:00,
2013-01-15 03:52:00,26.3,21.9,30.24,NNE,14,3.7,6.9,81,-99.99,,,-99.99,WSDL version 423,2013-01-15 09:52:00,
2013-01-15 03:55:00,26.4,22.0,30.24,ENE,68,4.0,6.0,81,-99.99,,,-99.99,WSDL version 423,2013-01-15 09:55:00,
2013-01-15 03:56:00,26.4,22.0,30.24,NE,53,3.9,6.0,81,-99.99,,,-99.99,WSDL version 423,2013-01-15 09:56:00,
2013-01-15 03:58:00,26.4,22.0,30.24,NE,35,3.1,6.0,81,-99.99,,,-99.99,WSDL version 423,2013-01-15 09:58:00,
2013-01-15 04:03:00,26.4,22.0,30.24,NNE,28,4.1,6.5,81,-99.99,,,-99.99,WSDL version 423,2013-01-15 10:03:00,
2013-01-15 04:05:00,26.4,22.0,30.24,NE,37,3.1,6.5,81,-99.99,,,-99.99,WSDL version 423,2013-01-15 10:05:00,
2013-01-15 04:08:00,26.4,22.0,30.24,NNE,29,3.6,6.5,82,-99.99,,,-99.99,WSDL version 423,2013-01-15 10:08:00,
2013-01-15 04:10:00,26.5,22.2,30.24,North,8,3.4,6.5,82,-99.99,,,-99.99,WSDL version 423,2013-01-15 10:10:00,
2013-01-15 04:13:00,26.6,22.4,30.21,NNE,23,3.1,5.6,82,-99.99,,,-99.99,WSDL version 423,2013-01-15 10:13:00,
2013-01-15 04:16:00,26.6,22.4,30.21,North,11,1.5,5.6,82,-99.99,,,-99.99,WSDL version 423,2013-01-15 10:16:00,
2013-01-15 04:18:00,26.6,22.3,30.21,NNE,14,1.1,5.6,81,-99.99,,,-99.99,WSDL version 423,2013-01-15 10:18:00,
2013-01-15 04:21:00,26.6,22.2,30.21,NNE,32,2.6,5.6,81,-99.99,,,-99.99,WSDL version 423,2013-01-15 10:21:00,
2013-01-15 04:25:00,26.6,22.1,30.21,NE,45,2.8,5.4,81,-99.99,,,-99.99,WSDL version 423,2013-01-15 10:25:00,
2013-01-15 04:26:00,26.6,22.1,30.21,NNE,19,2.8,5.4,81,-99.99,,,-99.99,WSDL version 423,2013-01-15 10:26:00,
2013-01-15 04:30:00,26.6,22.2,30.21,NNE,23,3.3,6.5,82,-99.99,,,-99.99,WSDL version 423,2013-01-15 10:30:00,
2013-01-15 04:32:00,26.6,22.3,30.21,NNE,19,2.7,6.5,82,-99.99,,,-99.99,WSDL version 423,2013-01-15 10:32:00,
2013-01-15 04:35:00,26.6,22.5,30.21,North,8,2.5,6.5,82,-99.99,,,-99.99,WSDL version 423,2013-01-15 10:35:00,
2013-01-15 04:36:00,26.7,22.5,30.21,North,5,2.5,6.5,82,-99.99,,,-99.99,WSDL version 423,2013-01-15 10:36:00,
2013-01-15 04:40:00,26.8,22.6,30.21,ENE,64,1.6,3.6,82,-99.99,,,-99.99,WSDL version 423,2013-01-15 10:40:00,
2013-01-15 04:42:00,26.8,22.6,30.21,NNE,30,1.9,3.6,82,-99.99,,,-99.99,WSDL version 423,2013-01-15 10:42:00,
2013-01-15 04:45:00,26.8,22.6,30.21,NNE,33,2.8,3.6,82,-99.99,,,-99.99,WSDL version 423,2013-01-15 10:45:00,
2013-01-15 04:50:00,26.8,22.4,30.21,NNE,29,2.9,5.8,81,-99.99,,,-99.99,WSDL version 423,2013-01-15 10:50:00,
2013-01-15 04:52:00,26.8,22.3,30.21,NE,54,3.5,5.8,81,-99.99,,,-99.99,WSDL version 423,2013-01-15 10:52:00,
2013-01-15 04:55:00,26.8,22.3,30.21,ENE,58,2.6,5.8,81,-99.99,,,-99.99,WSDL version 423,2013-01-15 10:55:00,
2013-01-15 04:56:00,26.8,22.3,30.21,NE,50,3.1,5.8,81,-99.99,,,-99.99,WSDL version 423,2013-01-15 10:56:00,
2013-01-15 04:59:00,26.8,22.3,30.21,NNE,28,4.2,7.2,81,-99.99,,,-99.99,WSDL version 423,2013-01-15 10:59:00,
2013-01-15 05:01:00,26.8,22.3,30.21,NNE,26,4.7,8.5,81,-99.99,,,-99.99,WSDL version 423,2013-01-15 11:01:00,
2013-01-15 05:04:00,26.8,22.3,30.21,ENE,68,4.5,8.5,81,-99.99,,,-99.99,WSDL version 423,2013-01-15 11:04:00,
2013-01-15 05:07:00,26.8,22.2,30.21,NNE,23,3.9,9.8,80,-99.99,,,-99.99,WSDL version 423,2013-01-15 11:07:00,
2013-01-15 05:08:00,26.8,22.2,30.21,NE,45,4.5,9.8,80,-99.99,,,-99.99,WSDL version 423,2013-01-15 11:08:00,
2013-01-15 05:09:00,26.8,22.1,30.21,ENE,74,3.9,9.8,80,-99.99,,,-99.99,WSDL version 423,2013-01-15 11:09:00,
2013-01-15 05:13:00,26.8,22.0,30.21,NNE,15,3.7,9.8,80,-99.99,,,-99.99,WSDL version 423,2013-01-15 11:13:00,
2013-01-15 05:14:00,26.7,22.0,30.21,NE,34,2.8,9.8,80,-99.99,,,-99.99,WSDL version 423,2013-01-15 11:14:00,
2013-01-15 05:15:00,26.7,22.0,30.21,ENE,74,3.3,8.9,80,-99.99,,,-99.99,WSDL version 423,2013-01-15 11:15:00,
2013-01-15 05:20:00,26.6,21.9,30.21,NNE,28,4.1,8.9,80,-99.99,,,-99.99,WSDL version 423,2013-01-15 11:20:00,
2013-01-15 05:21:00,26.6,21.9,30.21,North,357,4.5,6.7,80,-99.99,,,-99.99,WSDL version 423,2013-01-15 11:21:00,
2013-01-15 05:26:00,26.6,21.9,30.21,NNE,13,2.5,6.7,80,-99.99,,,-99.99,WSDL version 423,2013-01-15 11:26:00,
2013-01-15 05:27:00,26.6,21.9,30.21,NE,45,3.1,7.8,80,-99.99,,,-99.99,WSDL version 423,2013-01-15 11:27:00,
2013-01-15 05:31:00,26.5,21.8,30.21,ENE,60,4.2,7.8,80,-99.99,,,-99.99,WSDL version 423,2013-01-15 11:31:00,
2013-01-15 05:34:00,26.4,21.7,30.21,NNE,29,4.5,7.8,80,-99.99,,,-99.99,WSDL version 423,2013-01-15 11:34:00,
2013-01-15 05:35:00,26.4,21.7,30.21,NE,41,2.7,7.8,80,-99.99,,,-99.99,WSDL version 423,2013-01-15 11:35:00,
2013-01-15 05:36:00,26.4,21.7,30.21,NE,51,2.7,7.8,80,-99.99,,,-99.99,WSDL version 423,2013-01-15 11:36:00,
2013-01-15 05:39:00,26.4,21.7,30.21,NNE,19,2.8,7.6,80,-99.99,,,-99.99,WSDL version 423,2013-01-15 11:39:00,
2013-01-15 05:43:00,26.3,21.6,30.21,NE,48,4.0,7.2,80,-99.99,,,-99.99,WSDL version 423,2013-01-15 11:43:00,
2013-01-15 05:44:00,26.3,21.5,30.21,NE,42,3.3,7.2,80,-99.99,,,-99.99,WSDL version 423,2013-01-15 11:44:00,
2013-01-15 05:48:00,26.2,21.5,30.21,NE,39,2.6,6.5,80,-99.99,,,-99.99,WSDL version 423,2013-01-15 11:48:00,
2013-01-15 05:49:00,26.2,21.5,30.21,NE,37,3.0,6.5,80,-99.99,,,-99.99,WSDL version 423,2013-01-15 11:49:00,
2013-01-15 05:50:00,26.3,21.5,30.21,NE,48,3.2,5.6,80,-99.99,,,-99.99,WSDL version 423,2013-01-15 11:50:00,
2013-01-15 05:53:00,26.4,21.8,30.21,NNE,30,3.9,5.6,81,-99.99,,,-99.99,WSDL version 423,2013-01-15 11:53:00,
2013-01-15 05:54:00,26.4,21.9,30.21,NNE,26,4.0,6.3,81,-99.99,,,-99.99,WSDL version 423,2013-01-15 11:54:00,
2013-01-15 05:59:00,26.2,21.8,30.21,NNE,32,3.9,6.3,81,-99.99,,,-99.99,WSDL version 423,2013-01-15 11:59:00,
2013-01-15 06:00:00,26.2,21.8,30.21,NNE,30,4.3,6.3,81,-99.99,,,-99.99,WSDL version 423,2013-01-15 12:00:00,
2013-01-15 06:01:00,26.2,21.8,30.21,NE,45,4.2,6.3,81,-99.99,,,-99.99,WSDL version 423,2013-01-15 12:01:00,
2013-01-15 06:04:00,26.2,21.7,30.21,NE,38,4.6,6.0,81,-99.99,,,-99.99,WSDL version 423,2013-01-15 12:04:00,
2013-01-15 06:06:00,26.1,21.7,30.21,NE,41,3.7,6.0,81,-99.99,,,-99.99,WSDL version 423,2013-01-15 12:06:00,
2013-01-15 06:09:00,26.1,21.7,30.21,NNE,30,3.7,6.0,81,-99.99,,,-99.99,WSDL version 423,2013-01-15 12:09:00,
2013-01-15 06:11:00,26.2,21.8,30.21,ENE,65,2.6,7.8,81,-99.99,,,-99.99,WSDL version 423,2013-01-15 12:11:00,
2013-01-15 06:13:00,26.1,21.7,30.21,NNE,32,3.1,7.8,81,-99.99,,,-99.99,WSDL version 423,2013-01-15 12:13:00,
2013-01-15 06:14:00,26.1,21.7,30.21,NNE,23,3.1,7.8,81,-99.99,,,-99.99,WSDL version 423,2013-01-15 12:14:00,
2013-01-15 06:16:00,26.1,21.7,30.21,NNE,20,3.2,7.8,81,-99.99,,,-99.99,WSDL version 423,2013-01-15 12:16:00,
2013-01-15 06:19:00,26.2,21.8,30.21,NE,34,4.5,7.8,81,-99.99,,,-99.99,WSDL version 423,2013-01-15 12:19:00,
2013-01-15 06:21:00,26.2,21.8,30.21,NNE,31,3.4,6.3,81,-99.99,,,-99.99,WSDL version 423,2013-01-15 12:21:00,
2013-01-15 06:24:00,26.1,21.7,30.21,NE,39,4.4,6.3,81,-99.99,,,-99.99,WSDL version 423,2013-01-15 12:24:00,
2013-01-15 06:26:00,26.1,21.7,30.21,NNE,33,3.5,6.3,81,-99.99,,,-99.99,WSDL version 423,2013-01-15 12:26:00,
2013-01-15 06:28:00,26.2,21.8,30.21,East,84,2.6,6.3,82,-99.99,,,-99.99,WSDL version 423,2013-01-15 12:28:00,
2013-01-15 06:30:00,26.2,21.9,30.21,ENE,62,3.2,6.3,82,-99.99,,,-99.99,WSDL version 423,2013-01-15 12:30:00,
2013-01-15 06:32:00,26.2,22.1,30.21,NNE,17,3.7,7.8,82,-99.99,,,-99.99,WSDL version 423,2013-01-15 12:32:00,
2013-01-15 06:34:00,26.2,22.1,30.21,NNE,28,4.8,8.7,82,-99.99,,,-99.99,WSDL version 423,2013-01-15 12:34:00,
2013-01-15 06:36:00,26.2,22.1,30.21,NE,53,5.1,8.7,82,-99.99,,,-99.99,WSDL version 423,2013-01-15 12:36:00,
2013-01-15 06:39:00,26.2,22.1,30.21,NE,37,3.2,8.7,82,-99.99,,,-99.99,WSDL version 423,2013-01-15 12:39:00,
2013-01-15 06:41:00,26.2,22.1,30.21,SW,230,3.4,8.7,82,-99.99,,,-99.99,WSDL version 423,2013-01-15 12:41:00,
2013-01-15 06:44:00,26.3,22.1,30.21,NNE,26,4.7,10.3,82,-99.99,,,-99.99,WSDL version 423,2013-01-15 12:44:00,
2013-01-15 06:46:00,26.3,22.2,30.21,NE,56,3.7,10.3,82,-99.99,,,-99.99,WSDL version 423,2013-01-15 12:46:00,
2013-01-15 06:47:00,26.4,22.2,30.21,NE,45,3.8,10.3,82,-99.99,,,-99.99,WSDL version 423,2013-01-15 12:47:00,
2013-01-15 06:50:00,26.4,22.3,30.21,NNE,33,5.1,10.5,82,-99.99,,,-99.99,WSDL version 423,2013-01-15 12:50:00,
2013-01-15 06:51:00,26.4,22.3,30.21,NE,45,5.5,10.5,82,-99.99,,,-99.99,WSDL version 423,2013-01-15 12:51:00,
2013-01-15 06:53:00,26.4,22.3,30.21,NNE,20,4.5,10.5,82,-99.99,,,-99.99,WSDL version 423,2013-01-15 12:53:00,
2013-01-15 06:55:00,26.4,22.3,30.21,NNE,25,4.2,10.5,82,-99.99,,,-99.99,WSDL version 423,2013-01-15 12:55:00,
2013-01-15 06:56:00,26.5,22.3,30.21,NNE,23,3.7,10.5,82,-99.99,,,-99.99,WSDL version 423,2013-01-15 12:56:00,
2013-01-15 06:57:00,26.5,22.4,30.24,NNE,20,3.9,10.5,82,-99.99,,,-99.99,WSDL version 423,2013-01-15 12:57:00,
2013-01-15 07:00:00,26.6,22.4,30.24,NE,34,4.0,6.3,82,-99.99,,,-99.99,WSDL version 423,2013-01-15 13:00:00,
2013-01-15 07:01:00,26.6,22.4,30.24,NE,39,3.7,6.3,82,-99.99,,,-99.99,WSDL version 423,2013-01-15 13:01:00,
2013-01-15 07:02:00,26.6,22.4,30.24,NNE,25,3.4,6.3,82,-99.99,,,-99.99,WSDL version 423,2013-01-15 13:02:00,
2013-01-15 07:06:00,26.6,22.2,30.24,NE,53,3.2,6.0,81,-99.99,,,-99.99,WSDL version 423,2013-01-15 13:06:00,
2013-01-15 07:08:00,26.7,22.2,30.24,NNE,33,2.8,6.0,81,-99.99,,,-99.99,WSDL version 423,2013-01-15 13:08:00,
2013-01-15 07:09:00,26.7,22.3,30.24,NE,45,3.3,6.3,81,-99.99,,,-99.99,WSDL version 423,2013-01-15 13:09:00,
2013-01-15 07:14:00,26.8,22.3,30.24,NNE,16,4.3,6.5,81,-99.99,,,-99.99,WSDL version 423,2013-01-15 13:14:00,
2013-01-15 07:17:00,26.8,22.3,30.24,NE,42,4.3,7.4,81,-99.99,,,-99.99,WSDL version 423,2013-01-15 13:17:00,
2013-01-15 07:19:00,26.8,22.3,30.24,NNE,31,4.9,7.4,81,-99.99,,,-99.99,WSDL version 423,2013-01-15 13:19:00,
2013-01-15 07:22:00,26.8,22.4,30.24,NNE,30,3.9,7.4,81,-99.99,,,-99.99,WSDL version 423,2013-01-15 13:22:00,
2013-01-15 07:24:00,26.9,22.5,30.24,NE,45,2.8,7.4,81,-99.99,,,-99.99,WSDL version 423,2013-01-15 13:24:00,
2013-01-15 07:27:00,26.9,22.5,30.24,NE,39,3.1,7.2,81,-99.99,,,-99.99,WSDL version 423,2013-01-15 13:27:00,
2013-01-15 07:28:00,26.9,22.5,30.24,NNE,31,3.4,7.2,81,-99.99,,,-99.99,WSDL version 423,2013-01-15 13:28:00,
2013-01-15 07:29:00,26.9,22.4,30.24,NE,43,3.7,7.2,80,-99.99,,,-99.99,WSDL version 423,2013-01-15 13:29:00,
2013-01-15 07:33:00,26.9,22.2,30.24,NNE,28,5.0,7.4,80,-99.99,,,-99.99,WSDL version 423,2013-01-15 13:33:00,
2013-01-15 07:34:00,26.9,22.2,30.24,NE,35,5.6,7.4,80,-99.99,,,-99.99,WSDL version 423,2013-01-15 13:34:00,
2013-01-15 07:39:00,26.9,22.2,30.24,ESE,108,3.7,7.6,80,-99.99,,,-99.99,WSDL version 423,2013-01-15 13:39:00,
2013-01-15 07:40:00,26.9,22.2,30.24,NNW,346,3.5,7.6,80,-99.99,,,-99.99,WSDL version 423,2013-01-15 13:40:00,
2013-01-15 07:41:00,26.9,22.2,30.24,NE,51,3.3,7.6,80,-99.99,,,-99.99,WSDL version 423,2013-01-15 13:41:00,
2013-01-15 07:45:00,26.9,22.2,30.24,NNE,31,5.2,7.8,80,-99.99,,,-99.99,WSDL version 423,2013-01-15 13:45:00,
2013-01-15 07:46:00,26.9,22.2,30.24,NNE,30,5.1,7.8,80,-99.99,,,-99.99,WSDL version 423,2013-01-15 13:46:00,
2013-01-15 07:50:00,27.0,22.3,30.24,NNE,20,3.6,7.8,80,-99.99,,,-99.99,WSDL version 423,2013-01-15 13:50:00,
2013-01-15 07:51:00,27.1,22.4,30.24,NNE,33,3.5,7.8,80,-99.99,,,-99.99,WSDL version 423,2013-01-15 13:51:00,
2013-01-15 07:52:00,27.1,22.4,30.24,NNE,23,3.4,7.8,80,-99.99,,,-99.99,WSDL version 423,2013-01-15 13:52:00,
2013-01-15 07:53:00,27.1,22.4,30.24,NNE,26,3.4,7.8,80,-99.99,,,-99.99,WSDL version 423,2013-01-15 13:53:00,
2013-01-15 07:56:00,27.1,22.4,30.24,NE,39,4.5,6.0,80,-99.99,,,-99.99,WSDL version 423,2013-01-15 13:56:00,
2013-01-15 07:58:00,27.1,22.4,30.24,NE,39,3.1,6.0,80,-99.99,,,-99.99,WSDL version 423,2013-01-15 13:58:00,
2013-01-15 08:01:00,27.2,22.5,30.24,NE,35,3.7,7.2,81,-99.99,,,-99.99,WSDL version 423,2013-01-15 14:01:00,
2013-01-15 08:03:00,27.2,22.7,30.24,NE,34,3.2,7.2,81,-99.99,,,-99.99,WSDL version 423,2013-01-15 14:03:00,
2013-01-15 08:04:00,27.3,22.8,30.24,NNE,17,3.1,7.4,81,-99.99,,,-99.99,WSDL version 423,2013-01-15 14:04:00,
2013-01-15 08:06:00,27.5,22.9,30.24,NE,56,3.3,7.4,81,-99.99,,,-99.99,WSDL version 423,2013-01-15 14:06:00,
2013-01-15 08:08:00,27.6,23.0,30.24,NE,51,2.7,7.4,81,-99.99,,,-99.99,WSDL version 423,2013-01-15 14:08:00,
2013-01-15 08:12:00,27.7,23.1,30.24,NE,40,4.3,7.4,81,-99.99,,,-99.99,WSDL version 423,2013-01-15 14:12:00,
2013-01-15 08:13:00,27.8,23.2,30.24,NNE,17,4.3,9.2,80,-99.99,,,-99.99,WSDL version 423,2013-01-15 14:13:00,
2013-01-15 08:14:00,27.8,23.1,30.24,NNE,18,4.7,9.2,80,-99.99,,,-99.99,WSDL version 423,2013-01-15 14:14:00,
2013-01-15 08:15:00,27.8,23.1,30.24,NNE,33,5.7,9.2,80,-99.99,,,-99.99,WSDL version 423,2013-01-15 14:15:00,
2013-01-15 08:19:00,27.9,22.9,30.24,NNE,25,5.2,10.3,79,-99.99,,,-99.99,WSDL version 423,2013-01-15 14:19:00,
2013-01-15 08:20:00,28.0,22.9,30.24,NE,42,5.0,10.3,79,-99.99,,,-99.99,WSDL version 423,2013-01-15 14:20:00,
2013-01-15 08:21:00,28.1,23.1,30.24,NE,45,3.8,10.3,79,-99.99,,,-99.99,WSDL version 423,2013-01-15 14:21:00,
2013-01-15 08:24:00,28.5,23.5,30.24,NE,38,3.1,10.3,80,-99.99,,,-99.99,WSDL version 423,2013-01-15 14:24:00,
2013-01-15 08:26:00,28.7,23.7,30.24,NE,37,5.5,10.3,79,-99.99,,,-99.99,WSDL version 423,2013-01-15 14:26:00,
2013-01-15 08:28:00,28.6,23.4,30.24,NE,43,5.8,9.6,77,-99.99,,,-99.99,WSDL version 423,2013-01-15 14:28:00,
2013-01-15 08:29:00,28.5,23.2,30.24,NNE,30,6.4,9.6,76,-99.99,,,-99.99,WSDL version 423,2013-01-15 14:29:00,
2013-01-15 08:30:00,28.5,23.0,30.24,NE,42,6.3,9.6,76,-99.99,,,-99.99,WSDL version 423,2013-01-15 14:30:00,
2013-01-15 08:33:00,28.5,22.7,30.24,NNE,20,4.2,9.6,76,-99.99,,,-99.99,WSDL version 423,2013-01-15 14:33:00,
2013-01-15 08:34:00,28.5,22.7,30.24,NNE,23,3.3,9.6,76,-99.99,,,-99.99,WSDL version 423,2013-01-15 14:34:00,
2013-01-15 08:36:00,28.6,22.7,30.24,NE,42,4.1,9.6,76,-99.99,,,-99.99,WSDL version 423,2013-01-15 14:36:00,
2013-01-15 08:41:00,28.3,22.3,30.24,NNE,17,5.4,8.7,75,-99.99,,,-99.99,WSDL version 423,2013-01-15 14:41:00,
2013-01-15 08:42:00,28.3,22.3,30.24,NNE,31,4.0,8.7,75,-99.99,,,-99.99,WSDL version 423,2013-01-15 14:42:00,
2013-01-15 08:44:00,28.5,22.4,30.24,NNE,23,3.9,8.7,75,-99.99,,,-99.99,WSDL version 423,2013-01-15 14:44:00,
2013-01-15 08:47:00,28.5,22.5,30.24,NE,35,4.5,8.7,75,-99.99,,,-99.99,WSDL version 423,2013-01-15 14:47:00,
2013-01-15 08:49:00,28.6,22.5,30.24,West,263,2.4,8.5,75,-99.99,,,-99.99,WSDL version 423,2013-01-15 14:49:00,
2013-01-15 08:50:00,28.6,22.6,30.24,NE,35,3.0,8.5,76,-99.99,,,-99.99,WSDL version 423,2013-01-15 14:50:00,
2013-01-15 08:53:00,28.9,23.0,30.24,ENE,73,3.9,7.2,75,-99.99,,,-99.99,WSDL version 423,2013-01-15 14:53:00,
2013-01-15 08:55:00,29.1,23.1,30.24,SE,132,3.0,7.2,75,-99.99,,,-99.99,WSDL version 423,2013-01-15 14:55:00,
2013-01-15 08:56:00,29.2,23.2,30.24,ESE,108,2.6,6.3,75,-99.99,,,-99.99,WSDL version 423,2013-01-15 14:56:00,
2013-01-15 08:59:00,29.6,23.7,30.24,ENE,70,2.8,6.3,76,-99.99,,,-99.99,WSDL version 423,2013-01-15 14:59:00,
2013-01-15 09:00:00,29.7,23.8,30.24,ENE,59,3.4,7.8,75,-99.99,,,-99.99,WSDL version 423,2013-01-15 15:00:00,
2013-01-15 09:05:00,29.8,23.3,30.24,ENE,62,3.5,8.9,73,-99.99,,,-99.99,WSDL version 423,2013-01-15 15:05:00,
2013-01-15 09:06:00,29.9,23.3,30.24,NE,38,3.4,8.9,73,-99.99,,,-99.99,WSDL version 423,2013-01-15 15:06:00,
2013-01-15 09:08:00,30.1,23.4,30.24,NE,56,2.9,8.9,73,-99.99,,,-99.99,WSDL version 423,2013-01-15 15:08:00,
2013-01-15 09:10:00,30.3,23.8,30.24,NNE,17,2.5,8.9,74,-99.99,,,-99.99,WSDL version 423,2013-01-15 15:10:00,
2013-01-15 09:15:00,31.1,24.1,30.21,NNE,23,6.3,12.5,70,-99.99,,,-99.99,WSDL version 423,2013-01-15 15:15:00,
2013-01-15 09:16:00,31.0,23.8,30.21,NNE,29,6.7,12.5,69,-99.99,,,-99.99,WSDL version 423,2013-01-15 15:16:00,
2013-01-15 09:17:00,31.0,23.6,30.21,NNE,17,5.7,12.5,69,-99.99,,,-99.99,WSDL version 423,2013-01-15 15:17:00,
2013-01-15 09:20:00,31.2,23.2,30.21,East,84,2.7,12.5,69,-99.99,,,-99.99,WSDL version 423,2013-01-15 15:20:00,
2013-01-15 09:22:00,31.4,23.4,30.21,NNE,30,3.1,12.5,69,-99.99,,,-99.99,WSDL version 423,2013-01-15 15:22:00,
2013-01-15 09:25:00,31.5,23.5,30.21,NE,51,2.6,8.7,69,-99.99,,,-99.99,WSDL version 423,2013-01-15 15:25:00,
2013-01-15 09:27:00,31.6,23.6,30.21,NE,51,2.7,6.9,69,-99.99,,,-99.99,WSDL version 423,2013-01-15 15:27:00,
2013-01-15 09:30:00,31.6,23.0,30.21,NE,45,4.5,10.1,66,-99.99,,,-99.99,WSDL version 423,2013-01-15 15:30:00,
2013-01-15 09:32:00,31.7,22.7,30.21,NE,39,2.9,10.1,67,-99.99,,,-99.99,WSDL version 423,2013-01-15 15:32:00,
2013-01-15 09:33:00,31.9,22.7,30.21,NNE,32,3.9,10.1,66,-99.99,,,-99.99,WSDL version 423,2013-01-15 15:33:00,
2013-01-15 09:34:00,32.2,22.7,30.21,NNE,28,4.1,10.1,66,-99.99,,,-99.99,WSDL version 423,2013-01-15 15:34:00,
2013-01-15 09:36:00,32.7,22.7,30.21,ENE,59,2.6,10.1,67,-99.99,,,-99.99,WSDL version 423,2013-01-15 15:36:00,
2013-01-15 09:37:00,33.2,23.3,30.21,ENE,68,2.0,10.1,68,-99.99,,,-99.99,WSDL version 423,2013-01-15 15:37:00,
2013-01-15 09:41:00,34.4,24.8,30.21,East,100,2.7,6.5,68,-99.99,,,-99.99,WSDL version 423,2013-01-15 15:41:00,
2013-01-15 09:43:00,35.1,25.3,30.21,East,90,3.1,6.0,67,-99.99,,,-99.99,WSDL version 423,2013-01-15 15:43:00,
2013-01-15 09:44:00,35.3,24.9,30.21,NE,50,3.4,6.0,62,-99.99,,,-99.99,WSDL version 423,2013-01-15 15:44:00,
2013-01-15 09:46:00,35.5,24.0,30.21,NNE,28,4.4,7.2,59,-99.99,,,-99.99,WSDL version 423,2013-01-15 15:46:00,
2013-01-15 09:49:00,35.8,22.7,30.21,NE,34,4.9,7.6,57,-99.99,,,-99.99,WSDL version 423,2013-01-15 15:49:00,
2013-01-15 09:52:00,36.1,22.2,30.21,NE,50,4.6,7.6,56,-99.99,,,-99.99,WSDL version 423,2013-01-15 15:52:00,
2013-01-15 09:54:00,36.4,22.4,30.21,ENE,65,2.9,7.6,57,-99.99,,,-99.99,WSDL version 423,2013-01-15 15:54:00,
2013-01-15 09:55:00,36.5,22.5,30.21,NE,45,3.0,7.6,56,-99.99,,,-99.99,WSDL version 423,2013-01-15 15:55:00,
2013-01-15 09:56:00,36.7,22.5,30.21,NE,35,4.2,7.6,54,-99.99,,,-99.99,WSDL version 423,2013-01-15 15:56:00,
2013-01-15 10:01:00,36.5,20.9,30.21,NNE,26,4.2,7.4,52,-99.99,,,-99.99,WSDL version 423,2013-01-15 16:01:00,
2013-01-15 10:02:00,36.5,20.8,30.21,NNE,25,5.3,7.6,52,-99.99,,,-99.99,WSDL version 423,2013-01-15 16:02:00,
2013-01-15 10:03:00,36.5,20.8,30.21,NE,35,5.3,7.6,52,-99.99,,,-99.99,WSDL version 423,2013-01-15 16:03:00,
2013-01-15 10:07:00,36.6,20.8,30.21,NE,53,3.5,7.6,53,-99.99,,,-99.99,WSDL version 423,2013-01-15 16:07:00,
2013-01-15 10:08:00,36.8,21.1,30.21,NE,37,3.6,7.6,53,-99.99,,,-99.99,WSDL version 423,2013-01-15 16:08:00,
2013-01-15 10:09:00,37.1,21.5,30.21,NE,35,3.2,7.6,54,-99.99,,,-99.99,WSDL version 423,2013-01-15 16:09:00,
2013-01-15 10:12:00,37.8,22.2,30.18,ENE,60,4.0,7.6,52,-99.99,,,-99.99,WSDL version 423,2013-01-15 16:12:00,
2013-01-15 10:13:00,38.0,22.2,30.18,NE,34,4.2,7.6,52,-99.99,,,-99.99,WSDL version 423,2013-01-15 16:13:00,
2013-01-15 10:14:00,38.0,21.8,30.18,NE,34,4.8,6.3,50,-99.99,,,-99.99,WSDL version 423,2013-01-15 16:14:00,
2013-01-15 10:18:00,38.6,22.0,30.18,ENE,74,3.0,7.2,50,-99.99,,,-99.99,WSDL version 423,2013-01-15 16:18:00,
2013-01-15 10:22:00,39.2,22.4,30.18,ENE,75,3.4,7.2,50,-99.99,,,-99.99,WSDL version 423,2013-01-15 16:22:00,
2013-01-15 10:23:00,39.2,22.5,30.18,NNE,26,3.1,7.2,51,-99.99,,,-99.99,WSDL version 423,2013-01-15 16:23:00,
2013-01-15 10:26:00,38.7,21.5,30.18,NE,45,3.3,7.2,49,-99.99,,,-99.99,WSDL version 423,2013-01-15 16:26:00,
2013-01-15 10:28:00,38.2,20.8,30.18,ENE,63,3.8,8.1,49,-99.99,,,-99.99,WSDL version 423,2013-01-15 16:28:00,
2013-01-15 10:29:00,37.9,20.4,30.18,NE,53,3.8,8.1,48,-99.99,,,-99.99,WSDL version 423,2013-01-15 16:29:00,
2013-01-15 10:33:00,37.1,19.2,30.18,NE,35,2.7,8.1,49,-99.99,,,-99.99,WSDL version 423,2013-01-15 16:33:00,
2013-01-15 10:35:00,36.9,19.2,30.18,ENE,60,4.1,8.1,48,-99.99,,,-99.99,WSDL version 423,2013-01-15 16:35:00,
2013-01-15 10:36:00,36.9,19.3,30.18,ENE,77,4.0,8.1,49,-99.99,,,-99.99,WSDL version 423,2013-01-15 16:36:00,
2013-01-15 10:39:00,37.2,19.7,30.18,NE,45,2.9,6.3,50,-99.99,,,-99.99,WSDL version 423,2013-01-15 16:39:00,
2013-01-15 10:40:00,37.4,20.0,30.18,East,79,3.1,6.3,50,-99.99,,,-99.99,WSDL version 423,2013-01-15 16:40:00,
2013-01-15 10:41:00,37.6,20.3,30.18,East,83,3.0,6.3,50,-99.99,,,-99.99,WSDL version 423,2013-01-15 16:41:00,
2013-01-15 10:43:00,38.2,21.2,30.18,NNE,31,3.2,6.3,51,-99.99,,,-99.99,WSDL version 423,2013-01-15 16:43:00,
2013-01-15 10:44:00,38.5,21.4,30.18,NNE,19,3.5,7.6,50,-99.99,,,-99.99,WSDL version 423,2013-01-15 16:44:00,
2013-01-15 10:46:00,38.7,21.1,30.18,East,98,5.7,7.6,47,-99.99,,,-99.99,WSDL version 423,2013-01-15 16:46:00,
2013-01-15 10:48:00,38.7,20.4,30.18,North,8,5.2,7.6,46,-99.99,,,-99.99,WSDL version 423,2013-01-15 16:48:00,
2013-01-15 10:50:00,38.4,19.6,30.18,NNE,32,6.1,8.7,46,-99.99,,,-99.99,WSDL version 423,2013-01-15 16:50:00,
2013-01-15 10:51:00,38.3,19.4,30.18,NE,34,5.4,8.7,46,-99.99,,,-99.99,WSDL version 423,2013-01-15 16:51:00,
2013-01-15 10:53:00,38.3,19.6,30.18,North,9,4.2,8.7,48,-99.99,,,-99.99,WSDL version 423,2013-01-15 16:53:00,
2013-01-15 10:56:00,38.7,20.4,30.18,NNE,27,3.8,8.7,46,-99.99,,,-99.99,WSDL version 423,2013-01-15 16:56:00,
2013-01-15 10:58:00,38.4,19.9,30.15,NNE,23,5.0,8.7,46,-99.99,,,-99.99,WSDL version 423,2013-01-15 16:58:00,
2013-01-15 11:01:00,37.7,18.9,30.15,NE,38,3.7,7.4,47,-99.99,,,-99.99,WSDL version 423,2013-01-15 17:01:00,
2013-01-15 11:03:00,37.6,19.0,30.15,NE,56,3.2,7.4,47,-99.99,,,-99.99,WSDL version 423,2013-01-15 17:03:00,
2013-01-15 11:07:00,37.1,18.7,30.15,North,11,5.8,10.7,47,-99.99,,,-99.99,WSDL version 423,2013-01-15 17:07:00,
2013-01-15 11:09:00,36.6,18.4,30.15,NE,41,6.4,10.7,48,-99.99,,,-99.99,WSDL version 423,2013-01-15 17:09:00,
2013-01-15 11:11:00,36.2,18.2,30.15,NNE,25,6.6,10.7,48,-99.99,,,-99.99,WSDL version 423,2013-01-15 17:11:00,
2013-01-15 11:12:00,36.1,18.1,30.09,NE,34,6.9,10.7,47,-99.99,,,-99.99,WSDL version 423,2013-01-15 17:12:00,
2013-01-15 11:13:00,35.9,18.0,30.09,NE,56,6.6,10.7,48,-99.99,,,-99.99,WSDL version 423,2013-01-15 17:13:00,
2013-01-15 11:14:00,35.9,17.9,30.09,SSE,158,4.7,10.7,48,-99.99,,,-99.99,WSDL version 423,2013-01-15 17:14:00,
2013-01-15 11:17:00,36.0,18.4,30.09,NE,38,2.7,9.4,50,-99.99,,,-99.99,WSDL version 423,2013-01-15 17:17:00,
2013-01-15 11:18:00,36.0,18.6,30.09,NE,48,3.2,9.4,50,-99.99,,,-99.99,WSDL version 423,2013-01-15 17:18:00,
2013-01-15 11:19:00,36.1,18.9,30.09,NE,45,3.7,9.4,51,-99.99,,,-99.99,WSDL version 423,2013-01-15 17:19:00,
2013-01-15 11:23:00,36.3,19.9,30.09,East,90,2.5,6.7,51,-99.99,,,-99.99,WSDL version 423,2013-01-15 17:23:00,
2013-01-15 11:24:00,36.3,19.8,30.09,North,8,2.4,6.7,50,-99.99,,,-99.99,WSDL version 423,2013-01-15 17:24:00,
2013-01-15 11:27:00,36.4,19.6,30.15,East,79,2.1,6.7,51,-99.99,,,-99.99,WSDL version 423,2013-01-15 17:27:00,
2013-01-15 11:29:00,36.4,19.7,30.15,East,93,2.0,5.6,51,-99.99,,,-99.99,WSDL version 423,2013-01-15 17:29:00,
2013-01-15 11:30:00,36.5,19.9,30.15,East,93,2.1,5.6,51,-99.99,,,-99.99,WSDL version 423,2013-01-15 17:30:00,
2013-01-15 11:32:00,36.5,20.2,30.15,ENE,64,2.0,5.6,52,-99.99,,,-99.99,WSDL version 423,2013-01-15 17:32:00,
2013-01-15 11:33:00,36.6,20.3,30.15,ESE,113,1.3,3.8,52,-99.99,,,-99.99,WSDL version 423,2013-01-15 17:33:00,
2013-01-15 11:38:00,36.8,20.7,30.15,NNE,18,1.4,3.8,51,-99.99,,,-99.99,WSDL version 423,2013-01-15 17:38:00,
2013-01-15 11:39:00,36.8,20.7,30.15,NE,48,2.0,3.8,52,-99.99,,,-99.99,WSDL version 423,2013-01-15 17:39:00,
2013-01-15 11:40:00,36.8,20.6,30.15,East,96,1.9,3.8,52,-99.99,,,-99.99,WSDL version 423,2013-01-15 17:40:00,
2013-01-15 11:42:00,36.9,20.7,30.12,South,172,0.6,3.8,52,-99.99,,,-99.99,WSDL version 423,2013-01-15 17:42:00,
2013-01-15 11:45:00,36.9,20.8,30.12,NE,45,2.5,5.8,50,-99.99,,,-99.99,WSDL version 423,2013-01-15 17:45:00,
2013-01-15 11:50:00,36.6,18.8,30.12,NNE,32,3.4,5.8,49,-99.99,,,-99.99,WSDL version 423,2013-01-15 17:50:00,
2013-01-15 11:52:00,36.4,18.6,30.12,NE,42,3.8,6.5,48,-99.99,,,-99.99,WSDL version 423,2013-01-15 17:52:00,
2013-01-15 11:57:00,36.2,18.7,30.15,NE,37,2.6,6.5,50,-99.99,,,-99.99,WSDL version 423,2013-01-15 17:57:00,
2013-01-15 11:58:00,36.2,18.9,30.15,NNE,20,2.9,6.5,50,-99.99,,,-99.99,WSDL version 423,2013-01-15 17:58:00,
2013-01-15 11:59:00,36.2,19.0,30.15,NNE,23,3.5,6.5,50,-99.99,,,-99.99,WSDL version 423,2013-01-15 17:59:00,
2013-01-15 12:02:00,36.0,18.7,30.15,North,6,4.2,5.8,49,-99.99,,,-99.99,WSDL version 423,2013-01-15 18:02:00,
2013-01-15 12:05:00,35.8,18.4,30.15,NNE,15,4.5,6.0,49,-99.99,,,-99.99,WSDL version 423,2013-01-15 18:05:00,
2013-01-15 12:08:00,35.5,18.0,30.15,North,4,5.6,7.6,48,-99.99,,,-99.99,WSDL version 423,2013-01-15 18:08:00,
2013-01-15 12:11:00,35.3,17.8,30.15,North,354,4.9,7.6,49,-99.99,,,-99.99,WSDL version 423,2013-01-15 18:11:00,
2013-01-15 12:12:00,35.3,17.8,30.15,North,358,4.7,7.6,49,-99.99,,,-99.99,WSDL version 423,2013-01-15 18:12:00,
2013-01-15 12:16:00,35.3,18.3,30.15,North,8,5.7,8.1,50,-99.99,,,-99.99,WSDL version 423,2013-01-15 18:16:00,
2013-01-15 12:17:00,35.3,18.3,30.15,North,5,5.2,8.1,50,-99.99,,,-99.99,WSDL version 423,2013-01-15 18:17:00,
2013-01-15 12:18:00,35.2,18.3,30.15,NNE,13,5.0,8.1,50,-99.99,,,-99.99,WSDL version 423,2013-01-15 18:18:00,
2013-01-15 12:23:00,35.2,18.4,30.15,NNE,13,5.2,8.5,50,-99.99,,,-99.99,WSDL version 423,2013-01-15 18:23:00,
2013-01-15 12:24:00,35.2,18.4,30.15,NNE,20,5.1,8.5,50,-99.99,,,-99.99,WSDL version 423,2013-01-15 18:24:00,
2013-01-15 12:26:00,35.3,18.4,30.15,North,6,4.6,8.5,50,-99.99,,,-99.99,WSDL version 423,2013-01-15 18:26:00,
2013-01-15 12:27:00,35.3,18.5,30.15,North,6,3.6,8.5,51,-99.99,,,-99.99,WSDL version 423,2013-01-15 18:27:00,
2013-01-15 12:28:00,35.4,18.5,30.15,North,11,3.9,8.5,50,-99.99,,,-99.99,WSDL version 423,2013-01-15 18:28:00,
2013-01-15 12:32:00,35.4,18.6,30.15,NNE,15,4.3,7.8,51,-99.99,,,-99.99,WSDL version 423,2013-01-15 18:32:00,
2013-01-15 12:34:00,35.4,18.8,30.15,NNE,19,4.8,8.5,51,-99.99,,,-99.99,WSDL version 423,2013-01-15 18:34:00,
2013-01-15 12:35:00,35.4,18.8,30.15,North,10,5.4,8.5,51,-99.99,,,-99.99,WSDL version 423,2013-01-15 18:35:00,
2013-01-15 12:36:00,35.4,18.9,30.15,North,8,5.3,8.5,51,-99.99,,,-99.99,WSDL version 423,2013-01-15 18:36:00,
2013-01-15 12:40:00,35.4,19.2,30.15,North,4,5.9,9.6,51,-99.99,,,-99.99,WSDL version 423,2013-01-15 18:40:00,
2013-01-15 12:42:00,35.4,19.2,30.12,North,11,4.7,9.6,52,-99.99,,,-99.99,WSDL version 423,2013-01-15 18:42:00,
2013-01-15 12:44:00,35.4,19.1,30.12,NNE,28,5.1,9.6,51,-99.99,,,-99.99,WSDL version 423,2013-01-15 18:44:00,
2013-01-15 12:45:00,35.4,19.1,30.12,NNE,20,5.2,9.6,51,-99.99,,,-99.99,WSDL version 423,2013-01-15 18:45:00,
2013-01-15 12:48:00,35.5,19.2,30.12,North,11,2.5,8.1,52,-99.99,,,-99.99,WSDL version 423,2013-01-15 18:48:00,
2013-01-15 12:50:00,35.6,19.6,30.12,North,6,2.3,7.4,52,-99.99,,,-99.99,WSDL version 423,2013-01-15 18:50:00,
2013-01-15 12:52:00,35.7,20.0,30.12,North,3,3.3,6.9,52,-99.99,,,-99.99,WSDL version 423,2013-01-15 18:52:00,
2013-01-15 12:55:00,35.8,19.6,30.12,NNE,20,4.1,7.4,51,-99.99,,,-99.99,WSDL version 423,2013-01-15 18:55:00,
2013-01-15 12:57:00,35.9,19.6,30.15,NNE,14,4.0,7.4,52,-99.99,,,-99.99,WSDL version 423,2013-01-15 18:57:00,
2013-01-15 12:59:00,36.0,19.7,30.15,North,353,4.7,7.4,52,-99.99,,,-99.99,WSDL version 423,2013-01-15 18:59:00,
2013-01-15 13:00:00,36.0,19.8,30.15,North,357,4.1,7.4,52,-99.99,,,-99.99,WSDL version 423,2013-01-15 19:00:00,
2013-01-15 13:01:00,36.1,19.7,30.15,North,6,5.1,8.5,50,-99.99,,,-99.99,WSDL version 423,2013-01-15 19:01:00,
2013-01-15 13:03:00,36.1,19.6,30.15,North,3,5.9,8.5,50,-99.99,,,-99.99,WSDL version 423,2013-01-15 19:03:00,
2013-01-15 13:07:00,36.1,19.1,30.15,NNE,19,6.0,8.5,50,-99.99,,,-99.99,WSDL version 423,2013-01-15 19:07:00,
2013-01-15 13:09:00,36.1,19.1,30.15,North,10,6.6,8.7,50,-99.99,,,-99.99,WSDL version 423,2013-01-15 19:09:00,
2013-01-15 13:10:00,36.2,19.2,30.15,North,9,7.4,8.7,50,-99.99,,,-99.99,WSDL version 423,2013-01-15 19:10:00,
2013-01-15 13:15:00,36.3,19.0,30.12,NE,39,6.2,10.5,49,-99.99,,,-99.99,WSDL version 423,2013-01-15 19:15:00,
2013-01-15 13:16:00,36.3,18.9,30.12,NE,34,5.8,10.5,49,-99.99,,,-99.99,WSDL version 423,2013-01-15 19:16:00,
2013-01-15 13:17:00,36.3,18.8,30.12,North,8,6.0,10.5,49,-99.99,,,-99.99,WSDL version 423,2013-01-15 19:17:00,
2013-01-15 13:21:00,36.2,19.0,30.12,North,8,5.7,10.5,50,-99.99,,,-99.99,WSDL version 423,2013-01-15 19:21:00,
2013-01-15 13:22:00,36.2,19.0,30.12,NNE,16,6.4,10.5,50,-99.99,,,-99.99,WSDL version 423,2013-01-15 19:22:00,
2013-01-15 13:24:00,36.2,19.2,30.12,North,360,5.8,9.8,50,-99.99,,,-99.99,WSDL version 423,2013-01-15 19:24:00,
2013-01-15 13:27:00,36.1,19.0,30.12,NNE,19,6.7,9.8,49,-99.99,,,-99.99,WSDL version 423,2013-01-15 19:27:00,
2013-01-15 13:28:00,36.2,18.9,30.12,NNW,347,6.4,8.7,49,-99.99,,,-99.99,WSDL version 423,2013-01-15 19:28:00,
2013-01-15 13:32:00,36.2,18.8,30.12,North,3,6.5,8.7,49,-99.99,,,-99.99,WSDL version 423,2013-01-15 19:32:00,
2013-01-15 13:33:00,36.2,18.8,30.12,NNE,17,5.8,8.7,50,-99.99,,,-99.99,WSDL version 423,2013-01-15 19:33:00,
2013-01-15 13:37:00,36.3,19.3,30.12,North,360,4.3,8.7,51,-99.99,,,-99.99,WSDL version 423,2013-01-15 19:37:00,
2013-01-15 13:38:00,36.4,19.4,30.12,NNE,32,3.9,8.7,50,-99.99,,,-99.99,WSDL version 423,2013-01-15 19:38:00,
2013-01-15 13:42:00,36.5,19.5,30.09,NE,41,3.3,7.2,50,-99.99,,,-99.99,WSDL version 423,2013-01-15 19:42:00,
2013-01-15 13:43:00,36.5,19.5,30.09,NNE,26,3.3,6.9,50,-99.99,,,-99.99,WSDL version 423,2013-01-15 19:43:00,
2013-01-15 13:47:00,36.5,19.3,30.09,NE,35,5.8,9.8,50,-99.99,,,-99.99,WSDL version 423,2013-01-15 19:47:00,
2013-01-15 13:48:00,36.5,19.4,30.09,NE,45,5.2,9.8,51,-99.99,,,-99.99,WSDL version 423,2013-01-15 19:48:00,
2013-01-15 13:49:00,36.5,19.5,30.09,NNE,32,4.5,9.8,51,-99.99,,,-99.99,WSDL version 423,2013-01-15 19:49:00,
2013-01-15 13:52:00,36.3,19.4,30.09,NNE,32,5.8,9.8,50,-99.99,,,-99.99,WSDL version 423,2013-01-15 19:52:00,
2013-01-15 13:54:00,36.4,19.4,30.09,NNE,15,4.7,9.8,50,-99.99,,,-99.99,WSDL version 423,2013-01-15 19:54:00,
2013-01-15 13:57:00,36.4,19.3,30.09,NE,56,4.9,8.1,49,-99.99,,,-99.99,WSDL version 423,2013-01-15 19:57:00,
2013-01-15 13:58:00,36.5,19.4,30.09,ENE,68,5.4,8.1,49,-99.99,,,-99.99,WSDL version 423,2013-01-15 19:58:00,
2013-01-15 14:01:00,-999.0,-99.9,-100.00,North,0,0.0,7.2,-999,-99.99,,,-99.99,WSDL version 423,2013-01-15 20:01:00,
2013-01-15 21:45:00,-999.0,-99.9,-100.00,North,-999,-999.0,-999.0,-999,0.00,,,0.00,WSDL version 423,2013-01-16 03:45:00,
2013-01-15 21:46:00,-999.0,-99.9,-100.00,North,-999,-999.0,-999.0,-999,0.00,,,0.00,WSDL version 423,2013-01-16 03:46:00,
2013-01-15 21:48:00,-999.0,-99.9,-100.00,North,-999,-999.0,-999.0,-999,0.00,,,0.00,WSDL version 423,2013-01-16 03:48:00,
2013-01-15 21:51:00,-999.0,-99.9,-100.00,North,-999,-999.0,-999.0,-999,0.00,,,0.00,WSDL version 423,2013-01-16 03:51:00,
2013-01-15 21:52:00,-999.0,-99.9,-100.00,North,-999,-999.0,-999.0,-999,0.00,,,0.00,WSDL version 423,2013-01-16 03:52:00,
2013-01-15 21:54:00,-999.0,-99.9,-100.00,North,-999,-999.0,-999.0,-999,0.00,,,0.00,WSDL version 423,2013-01-16 03:54:00,
2013-01-15 21:56:00,-999.0,-99.9,-100.00,North,-999,-999.0,-999.0,-999,0.00,,,0.00,WSDL version 423,2013-01-16 03:56:00,
2013-01-15 22:01:00,-999.0,-99.9,-100.00,North,-999,-999.0,-999.0,-999,0.00,,,0.00,WSDL version 423,2013-01-16 04:01:00,
2013-01-15 22:03:00,-999.0,-99.9,-100.00,North,-999,-999.0,-999.0,-999,0.00,,,0.00,WSDL version 423,2013-01-16 04:03:00,
2013-01-15 22:05:00,-999.0,-99.9,-100.00,North,-999,-999.0,-999.0,-999,0.00,,,0.00,WSDL version 423,2013-01-16 04:05:00,
2013-01-15 22:06:00,-999.0,-99.9,-100.00,North,-999,-999.0,-999.0,-999,0.00,,,0.00,WSDL version 423,2013-01-16 04:06:00,
2013-01-15 22:08:00,-999.0,-99.9,-100.00,North,-999,-999.0,-999.0,-999,0.00,,,0.00,WSDL version 423,2013-01-16 04:08:00,
2013-01-15 22:11:00,-999.0,-99.9,-100.00,North,-999,-999.0,-999.0,-999,0.00,,,0.00,WSDL version 423,2013-01-16 04:11:00,
2013-01-15 22:12:00,-999.0,-99.9,-100.00,North,-999,-999.0,-999.0,-999,0.00,,,0.00,WSDL version 423,2013-01-16 04:12:00,
2013-01-15 22:13:00,-999.0,-99.9,-100.00,North,-999,-999.0,-999.0,-999,0.00,,,0.00,WSDL version 423,2013-01-16 04:13:00,
2013-01-15 22:15:00,-999.0,-99.9,-100.00,North,-999,-999.0,-999.0,-999,0.00,,,0.00,WSDL version 423,2013-01-16 04:15:00,
2013-01-15 22:18:00,-999.0,-99.9,-100.00,North,-999,-999.0,-999.0,-999,0.00,,,0.00,WSDL version 423,2013-01-16 04:18:00,
2013-01-15 22:21:00,-999.0,-99.9,-100.00,North,-999,-999.0,-999.0,-999,0.00,,,0.00,WSDL version 423,2013-01-16 04:21:00,
2013-01-15 22:23:00,-999.0,-99.9,-100.00,North,-999,-999.0,-999.0,-999,0.00,,,0.00,WSDL version 423,2013-01-16 04:23:00,
2013-01-15 22:24:00,-999.0,-99.9,-100.00,North,-999,-999.0,-999.0,-999,0.00,,,0.00,WSDL version 423,2013-01-16 04:24:00,
2013-01-15 22:28:00,-999.0,-99.9,-100.00,North,-999,-999.0,-999.0,-999,0.00,,,0.00,WSDL version 423,2013-01-16 04:28:00,
2013-01-15 22:29:00,-999.0,-99.9,-100.00,North,-999,-999.0,-999.0,-999,0.00,,,0.00,WSDL version 423,2013-01-16 04:29:00,
2013-01-15 22:34:00,-999.0,-99.9,-100.00,North,-999,-999.0,-999.0,-999,0.00,,,0.00,WSDL version 423,2013-01-16 04:34:00,
2013-01-15 22:35:00,-999.0,-99.9,-100.00,North,-999,-999.0,-999.0,-999,0.00,,,0.00,WSDL version 423,2013-01-16 04:35:00,
2013-01-15 22:39:00,-999.0,-99.9,-100.00,North,-999,-999.0,-999.0,-999,0.00,,,0.00,WSDL version 423,2013-01-16 04:39:00,
2013-01-15 22:41:00,-999.0,-99.9,-100.00,North,-999,-999.0,-999.0,-999,0.00,,,0.00,WSDL version 423,2013-01-16 04:41:00,
2013-01-15 22:45:00,-999.0,-99.9,-100.00,North,-999,-999.0,-999.0,-999,0.00,,,0.00,WSDL version 423,2013-01-16 04:45:00,
2013-01-15 22:47:00,-999.0,-99.9,-100.00,North,-999,-999.0,-999.0,-999,0.00,,,0.00,WSDL version 423,2013-01-16 04:47:00,
2013-01-15 22:50:00,-999.0,-99.9,-100.00,North,-999,-999.0,-999.0,-999,0.00,,,0.00,WSDL version 423,2013-01-16 04:50:00,
2013-01-15 22:51:00,-999.0,-99.9,-100.00,North,-999,-999.0,-999.0,-999,0.00,,,0.00,WSDL version 423,2013-01-16 04:51:00,
2013-01-15 22:52:00,-999.0,-99.9,-100.00,North,-999,-999.0,-999.0,-999,0.00,,,0.00,WSDL version 423,2013-01-16 04:52:00,
2013-01-15 22:56:00,-999.0,-99.9,-100.00,North,-999,-999.0,-999.0,-999,0.00,,,0.00,WSDL version 423,2013-01-16 04:56:00,
2013-01-15 22:57:00,-999.0,-99.9,-100.00,North,-999,-999.0,-999.0,-999,0.00,,,0.00,WSDL version 423,2013-01-16 04:57:00,
2013-01-15 22:59:00,-999.0,-99.9,-100.00,North,-999,-999.0,-999.0,-999,0.00,,,0.00,WSDL version 423,2013-01-16 04:59:00,
2013-01-15 23:01:00,-999.0,-99.9,-100.00,North,-999,-999.0,-999.0,-999,0.00,,,0.00,WSDL version 423,2013-01-16 05:01:00,
2013-01-15 23:02:00,-999.0,-99.9,-100.00,North,-999,-999.0,-999.0,-999,0.00,,,0.00,WSDL version 423,2013-01-16 05:02:00,
2013-01-15 23:03:00,-999.0,-99.9,-100.00,North,-999,-999.0,-999.0,-999,0.00,,,0.00,WSDL version 423,2013-01-16 05:03:00,
2013-01-15 23:04:00,-999.0,-99.9,-100.00,North,-999,-999.0,-999.0,-999,0.00,,,0.00,WSDL version 423,2013-01-16 05:04:00,
2013-01-15 23:08:00,-999.0,-99.9,-100.00,North,-999,-999.0,-999.0,-999,0.00,,,0.00,WSDL version 423,2013-01-16 05:08:00,
2013-01-15 23:12:00,-999.0,-99.9,-100.00,North,-999,-999.0,-999.0,-999,0.00,,,0.00,WSDL version 423,2013-01-16 05:12:00,
2013-01-15 23:13:00,-999.0,-99.9,-100.00,North,-999,-999.0,-999.0,-999,0.00,,,0.00,WSDL version 423,2013-01-16 05:13:00,
2013-01-15 23:16:00,-999.0,-99.9,-100.00,North,-999,-999.0,-999.0,-999,0.00,,,0.00,WSDL version 423,2013-01-16 05:16:00,
2013-01-15 23:17:00,-999.0,-99.9,-100.00,North,-999,-999.0,-999.0,-999,0.00,,,0.00,WSDL version 423,2013-01-16 05:17:00,
2013-01-15 23:18:00,-999.0,-99.9,-100.00,North,-999,-999.0,-999.0,-999,0.00,,,0.00,WSDL version 423,2013-01-16 05:18:00,
2013-01-15 23:23:00,-999.0,-99.9,-100.00,North,-999,-999.0,-999.0,-999,0.00,,,0.00,WSDL version 423,2013-01-16 05:23:00,
2013-01-15 23:24:00,-999.0,-99.9,-100.00,North,-999,-999.0,-999.0,-999,0.00,,,0.00,WSDL version 423,2013-01-16 05:24:00,
2013-01-15 23:29:00,-999.0,-99.9,-100.00,North,-999,-999.0,-999.0,-999,0.00,,,0.00,WSDL version 423,2013-01-16 05:29:00,
2013-01-15 23:30:00,-999.0,-99.9,-100.00,North,-999,-999.0,-999.0,-999,0.00,,,0.00,WSDL version 423,2013-01-16 05:30:00,
2013-01-15 23:35:00,-999.0,-99.9,-100.00,North,-999,-999.0,-999.0,-999,0.00,,,0.00,WSDL version 423,2013-01-16 05:35:00,
2013-01-15 23:38:00,-999.0,-99.9,-100.00,North,-999,-999.0,-999.0,-999,0.00,,,0.00,WSDL version 423,2013-01-16 05:38:00,
2013-01-15 23:40:00,-999.0,-99.9,-100.00,North,-999,-999.0,-999.0,-999,0.00,,,0.00,WSDL version 423,2013-01-16 05:40:00,
2013-01-15 23:43:00,-999.0,-99.9,-100.00,North,-999,-999.0,-999.0,-999,0.00,,,0.00,WSDL version 423,2013-01-16 05:43:00,
2013-01-15 23:44:00,-999.0,-99.9,-100.00,North,-999,-999.0,-999.0,-999,0.00,,,0.00,WSDL version 423,2013-01-16 05:44:00,
2013-01-15 23:47:00,-999.0,-99.9,-100.00,North,-999,-999.0,-999.0,-999,0.00,,,0.00,WSDL version 423,2013-01-16 05:47:00,
2013-01-15 23:48:00,-999.0,-99.9,-100.00,North,-999,-999.0,-999.0,-999,0.00,,,0.00,WSDL version 423,2013-01-16 05:48:00,
2013-01-15 23:49:00,-999.0,-99.9,-100.00,North,-999,-999.0,-999.0,-999,0.00,,,0.00,WSDL version 423,2013-01-16 05:49:00,
2013-01-15 23:52:00,-999.0,-99.9,-100.00,North,-999,-999.0,-999.0,-999,0.00,,,0.00,WSDL version 423,2013-01-16 05:52:00,
2013-01-15 23:54:00,-999.0,-99.9,-100.00,North,-999,-999.0,-999.0,-999,0.00,,,0.00,WSDL version 423,2013-01-16 05:54:00,
2013-01-15 23:59:00,-999.0,-99.9,-100.00,North,-999,-999.0,-999.0,-999,0.00,,,0.00,WSDL version 423,2013-01-16 05:59:00,